Starlink 35638

operational
NORAD ID: 66169 Int'l Des: 2025-240 Owner: SPXS Country: US Constellation: starlink
LEOCIRCULAR

About Starlink 35638

Description loading...

Live Position

Loading 3D Globe...

Upcoming Passes

Altitude History

Altitude vs Time

uPlot chart will show altitude changes over time

Two-Line Element Set

1 66169U 25240Z 25310.62149120 -.00457123 00000-0 -30623-2 0 9997
2 66169 53.1521 278.1921 0001177 334.8720 25.2243 15.75820746 3095
Epoch: Nov 6, 2025 • Age: 13 hours

Current Status

Altitude 351.7 km
Velocity 7.70 km/s
Sub-Earth Point -25.36°S, 9.68°E
Launch Date Oct 25, 2025
Age 12 days
Type internet

Technical Details

Classification Payload
Mass 575.00 kg
Dry Mass 530.00 kg
Total Mass 575.00 kg
Length 0.30 m
Diameter 4.10 m
Span 29.00 m
Shape Box + pan
Manufacturer SPXS
Bus Type Starlink V2MO
Phase Status In Orbit
Owner/State SPXS/US

Large Constellations

Loading constellations...